Location: Winnipeg
(49.8830°N, 97.1670°W)
Time: 02:02:55
(UTC-06:00)

ISS - Pass Details

Date: 17 November 2024
Orbit: 411 x 421 km, 51.6° (Epoch: 04 December)

Event Time Altitude Azimuth Distance (km) Brightness Sun altitude
Rises 17:39:03 0° 212° (SSW) 2,367 1.0 -9.2°
Reaches altitude 10° 17:41:24 10° 197° (SSW) 1,507 -0.4 -9.6°
Maximum altitude 17:44:09 23° 143° (SE) 947 -2.1 -10.0°
Enters shadow 17:46:17 14° 96° (E) 1,316 -1.8 -10.3°
